This is the latest recevied weather packets stored in our database for station/object KC1TEM-13. If no packets are shown the sender has not sent any weather packets the latest 10 day(s).
| Time | Temp. | Humidity | Pressure | Rain* | Wind** | Luminosity | Snow |
|---|---|---|---|---|---|---|---|
| 1777919860 | 22.22° C | 25% | 1006.7 hPa | 0 mm | - | 744 W/m² | - |
| 1777919557 | 22.22° C | 24% | 1006.8 hPa | 0 mm | - | 769 W/m² | - |
| 1777919255 | 22.22° C | 25% | 1007 hPa | 0 mm | - | 767 W/m² | - |
| 1777918952 | 22.22° C | 25% | 1006.8 hPa | 0 mm | - | 154 W/m² | - |
| 1777918650 | 22.78° C | 25% | 1007 hPa | 0 mm | - | 781 W/m² | - |
| 1777918347 | 22.22° C | 26% | 1007.1 hPa | 0 mm | - | 791 W/m² | - |
| 1777918046 | 22.22° C | 25% | 1007 hPa | 0 mm | - | 800 W/m² | - |
| 1777917744 | 21.67° C | 26% | 1006.8 hPa | 0 mm | - | 809 W/m² | - |
| 1777917442 | 21.67° C | 25% | 1006.9 hPa | 0 mm | - | 814 W/m² | - |
| 1777917138 | 22.22° C | 25% | 1006.9 hPa | 0 mm | - | 795 W/m² | - |
| 1777916836 | 22.22° C | 26% | 1006.9 hPa | 0 mm | - | 824 W/m² | - |
| 1777916534 | 22.22° C | 27% | 1007.1 hPa | 0 mm | - | 832 W/m² | - |
| 1777916230 | 21.67° C | 26% | 1007.1 hPa | 0 mm | - | 841 W/m² | - |
| 1777915927 | 22.22° C | 25% | 1007 hPa | 0 mm | - | 845 W/m² | - |
| 1777915624 | 21.67° C | 26% | 1007.1 hPa | 0 mm | - | 853 W/m² | - |
| 1777915320 | 21.67° C | 27% | 1007.2 hPa | 0 mm | - | 859 W/m² | - |
| 1777915017 | 21.67° C | 25% | 1007 hPa | 0 mm | - | 861 W/m² | - |
| 1777914714 | 21.11° C | 26% | 1007.1 hPa | 0 mm | - | 864 W/m² | - |
| 1777914410 | 21.67° C | 27% | 1007.3 hPa | 0 mm | - | 866 W/m² | - |
| 1777914108 | 21.11° C | 27% | 1007.4 hPa | 0 mm | - | 869 W/m² | - |
| 1777913804 | 21.11° C | 27% | 1007.4 hPa | 0 mm | - | 874 W/m² | - |
| 1777913501 | 21.11° C | 29% | 1007.6 hPa | 0 mm | - | 874 W/m² | - |
| 1777913197 | 21.11° C | 28% | 1007.7 hPa | 0 mm | - | 878 W/m² | - |
| 1777912893 | 21.11° C | 27% | 1007.3 hPa | 0 mm | - | 879 W/m² | - |
| 1777912590 | 21.11° C | 29% | 1007.4 hPa | 0 mm | - | 881 W/m² | - |
* Rain latest hour (hover to see other rain measurements)
** Current wind speed in m/s (hover to see current wind gust speed)